Weather History for KDAW - March, 2012

Change the Weather History Date:

Thursday, March 29, 2012

  Actual Average (KSFM) Record (KSFM)
Temperature  
Mean Temperature 38 °F -  
Max Temperature 42 °F 45 °F 71 °F (1998)
Min Temperature 35 °F 28 °F 12 °F (2015)
Degree Days  
Heating Degree Days 27    
Moisture  
Dew Point 32 °F    
Average Humidity 79    
Maximum Humidity 93    
Minimum Humidity 60    
Precipitation  
Precipitation 0.00 in - - ()
Sea Level Pressure  
Sea Level Pressure 29.72 in    
Wind  
Wind Speed 6 mph (NNW)    
Max Wind Speed 17 mph    
Max Gust Speed 25 mph    
Visibility 10 miles    
Events Rain    
Averages and records for this station are not official NWS values.
T = Trace of Precipitation, MM = Missing Value Source: NWS Daily Summary

Daily Weather History Graph

Daily Weather History Graph

Search for Another Location

Airport or City:

Trip Planner

Search our weather history database for the weather conditions in past years. The results will help you decide how hot, cold, wet, or windy it might be!

Date:

Astronomy

Mar. 29, 2012 Rise Set
Actual Time 6:30 AM EDT 7:07 PM EDT
Civil Twilight 6:01 AM EDT 7:35 PM EDT
Nautical Twilight 5:27 AM EDT 8:09 PM EDT
Astronomical Twilight 4:52 AM EDT 8:45 PM EDT
Moon 10:27 AM EDT (3/29) 1:04 AM EDT (3/29)
Length of Visible Light 13h 34m
Length of Day
12h 37m
Waxing Crescent, 39% of the Moon is Illuminated
Mar 29
Waxing Crescent
Mar 30
First Quarter
Apr 6
Full
Apr 13
Last Quarter
Apr 21
New

Hourly Weather History & Observations

Time (EDT) Temp. Windchill Dew Point Humidity Pressure Visibility Wind Dir Wind Speed Gust Speed Precip Events Conditions
12:51 AM 39.9 °F 37.8 °F 36.0 °F 86% 29.55 in 10.0 mi North 3.5 mph - 0.00 in   Overcast
1:51 AM 39.9 °F 36.7 °F 35.1 °F 83% 29.54 in 10.0 mi North 4.6 mph - N/A   Overcast
2:51 AM 39.0 °F 34.8 °F 35.1 °F 86% 29.55 in 10.0 mi North 5.8 mph - N/A   Overcast
3:51 AM 39.0 °F 34.8 °F 35.1 °F 86% 29.55 in 10.0 mi NNW 5.8 mph - N/A   Overcast
4:51 AM 39.0 °F 34.0 °F 35.1 °F 86% 29.57 in 10.0 mi NNW 6.9 mph - N/A   Overcast
5:51 AM 37.9 °F 33.5 °F 34.0 °F 86% 29.59 in 10.0 mi North 5.8 mph - N/A   Overcast
6:03 AM 37.4 °F 32.1 °F 33.8 °F 87% 29.59 in 10.0 mi North 6.9 mph - N/A   Overcast
6:51 AM 37.0 °F 31.6 °F 33.1 °F 86% 29.62 in 10.0 mi NNE 6.9 mph - N/A   Overcast
7:51 AM 36.0 °F 32.1 °F 34.0 °F 93% 29.65 in 10.0 mi North 4.6 mph - N/A   Overcast
8:51 AM 36.0 °F 32.1 °F 34.0 °F 93% 29.68 in 10.0 mi NNW 4.6 mph - 0.00 in   Overcast
9:12 AM 35.6 °F 29.9 °F 32.0 °F 87% 29.69 in 10.0 mi North 6.9 mph - N/A   Overcast
9:19 AM 35.6 °F 28.6 °F 32.0 °F 87% 29.69 in 10.0 mi North 9.2 mph - N/A   Overcast
9:51 AM 36.0 °F 30.3 °F 30.9 °F 82% 29.70 in 10.0 mi North 6.9 mph - N/A   Overcast
10:51 AM 36.0 °F 31.1 °F 30.9 °F 82% 29.73 in 10.0 mi NNE 5.8 mph - N/A   Overcast
11:43 AM 37.4 °F 34.9 °F 32.0 °F 81% 29.74 in 10.0 mi NNE 3.5 mph - N/A   Overcast
11:51 AM 37.0 °F 34.5 °F 32.0 °F 82% 29.75 in 10.0 mi NE 3.5 mph - N/A   Overcast
12:16 PM 37.4 °F 33.8 °F 32.0 °F 81% 29.75 in 10.0 mi North 4.6 mph - N/A   Overcast
12:32 PM 37.4 °F 33.8 °F 32.0 °F 81% 29.75 in 10.0 mi North 4.6 mph - N/A   Overcast
12:51 PM 37.0 °F 34.5 °F 32.0 °F 82% 29.76 in 10.0 mi North 3.5 mph - N/A   Overcast
1:11 PM 37.4 °F 33.8 °F 32.0 °F 81% 29.76 in 10.0 mi NW 4.6 mph - 0.00 in Rain Light Rain
1:51 PM 37.0 °F 33.3 °F 33.1 °F 86% 29.77 in 10.0 mi NW 4.6 mph - 0.00 in Rain Light Rain
2:07 PM 37.4 °F 33.8 °F 33.8 °F 87% 29.76 in 10.0 mi WNW 4.6 mph - 0.00 in   Overcast
2:51 PM 39.9 °F 33.9 °F 33.1 °F 77% 29.76 in 10.0 mi NW 9.2 mph - 0.00 in   Overcast
3:06 PM 39.2 °F 33.0 °F 33.8 °F 81% 29.76 in 10.0 mi NW 9.2 mph - N/A   Overcast
3:21 PM 39.2 °F 35.0 °F 33.8 °F 81% 29.76 in 10.0 mi Variable 5.8 mph - N/A   Overcast
3:51 PM 39.9 °F 34.5 °F 33.1 °F 77% 29.76 in 10.0 mi NW 8.1 mph - N/A   Overcast
4:51 PM 41.0 °F 34.3 °F 28.0 °F 60% 29.77 in 10.0 mi WNW 11.5 mph 19.6 mph N/A   Overcast
5:51 PM 39.9 °F 32.5 °F 27.0 °F 60% 29.80 in 10.0 mi NW 12.7 mph 20.7 mph N/A   Overcast
6:51 PM 39.0 °F 29.9 °F 27.0 °F 62% 29.83 in 10.0 mi NW 17.3 mph 25.3 mph N/A   Overcast
7:51 PM 37.9 °F 30.9 °F 26.1 °F 62% 29.84 in 10.0 mi NW 10.4 mph 20.7 mph N/A   Overcast
8:51 PM 37.9 °F 31.5 °F 26.1 °F 62% 29.86 in 10.0 mi WNW 9.2 mph - N/A   Overcast
9:51 PM 37.0 °F 34.5 °F 26.1 °F 65% 29.87 in 10.0 mi Variable 3.5 mph - N/A   Overcast
10:51 PM 36.0 °F 31.1 °F 26.1 °F 67% 29.87 in 10.0 mi WNW 5.8 mph - N/A   Mostly Cloudy
11:51 PM 35.1 °F 29.3 °F 26.1 °F 70% 29.88 in 10.0 mi NW 6.9 mph - N/A   Mostly Cloudy